LIPZ Weather Reports


time (UTC)temp
C
wind
direction
speed
KPH
gust
KPH
rain 1hr
cm
rain 24hr
cm
rain mn
cm
humidity
%
barometer
mb
20260507204505 17 90 8.0 0.0 0.00 0.00 0.00 77 1015.0
20260507203004 17 90 8.0 0.0 0.00 0.00 0.00 77 1015.0
20260507201505 17 150 11.3 0.0 0.00 0.00 0.00 77 1014.0
20260507200004 17 150 11.3 0.0 0.00 0.00 0.00 77 1014.0
20260507194504 17 140 12.9 0.0 0.00 0.00 0.00 77 1013.0
20260507193004 17 140 12.9 0.0 0.00 0.00 0.00 77 1013.0
20260507191504 17 140 12.9 0.0 0.00 0.00 0.00 77 1013.0
20260507190004 17 140 12.9 0.0 0.00 0.00 0.00 77 1013.0
20260507184504 17 120 11.3 0.0 0.00 0.00 0.00 77 1013.0
20260507183004 17 120 11.3 0.0 0.00 0.00 0.00 77 1013.0
20260507181503 17 110 11.3 0.0 0.00 0.00 0.00 72 1013.0
20260507180004 17 110 11.3 0.0 0.00 0.00 0.00 72 1013.0
20260507173005 17 90 11.3 0.0 0.00 0.00 0.00 72 1013.0
20260507171504 17 90 11.3 0.0 0.00 0.00 0.00 72 1013.0
20260507170004 17 90 11.3 0.0 0.00 0.00 0.00 72 1013.0
20260507163004 17 150 12.9 0.0 0.00 0.00 0.00 72 1012.0
20260507160005 18 160 1.6 0.0 0.00 0.00 0.00 72 1012.0
20260507154504 18 160 1.6 0.0 0.00 0.00 0.00 72 1012.0
20260507153004 18 160 1.6 0.0 0.00 0.00 0.00 72 1012.0
20260507144503 18 150 19.3 0.0 0.00 0.00 0.00 82 1012.0
20260507141504 21 160 11.3 0.0 0.00 0.00 0.00 60 1012.0
20260507140005 21 160 11.3 0.0 0.00 0.00 0.00 60 1012.0
20260507133004 21 180 11.3 0.0 0.00 0.00 0.00 60 1012.0
20260507131504 20 190 12.9 0.0 0.00 0.00 0.00 64 1012.0
20260507130004 20 190 12.9 0.0 0.00 0.00 0.00 64 1012.0
20260507124504 20 190 12.9 0.0 0.00 0.00 0.00 68 1012.0
20260507123004 20 190 12.9 0.0 0.00 0.00 0.00 68 1012.0
20260507120004 20 190 12.9 0.0 0.00 0.00 0.00 68 1013.0
20260507114504 20 170 11.3 0.0 0.00 0.00 0.00 72 1013.0
20260507113005 20 170 11.3 0.0 0.00 0.00 0.00 72 1013.0
20260507104503 18 170 9.7 0.0 0.00 0.00 0.00 77 1013.0
20260507103005 18 170 9.7 0.0 0.00 0.00 0.00 77 1013.0
20260507100005 17 200 12.9 0.0 0.00 0.00 0.00 88 1013.0
20260507094504 17 160 8.0 0.0 0.00 0.00 0.00 88 1013.0
20260507093004 17 160 8.0 0.0 0.00 0.00 0.00 88 1013.0
20260507090005 17 150 9.7 0.0 0.00 0.00 0.00 88 1013.0
20260507083004 17 90 8.0 0.0 0.00 0.00 0.00 88 1013.0
20260507081504 17 0 4.8 0.0 0.00 0.00 0.00 88 1012.0
20260507080005 17 0 4.8 0.0 0.00 0.00 0.00 88 1012.0
20260507074504 15 10 9.7 0.0 0.00 0.00 0.00 100 1012.0
20260507073004 15 10 9.7 0.0 0.00 0.00 0.00 100 1012.0
20260507071503 15 350 9.7 0.0 0.00 0.00 0.00 100 1012.0
20260507070009 15 350 9.7 0.0 0.00 0.00 0.00 100 1012.0
20260507064504 13 330 9.7 0.0 0.00 0.00 0.00 100 1012.0
20260507060004 13 340 8.0 0.0 0.00 0.00 0.00 100 1012.0
20260507051504 13 350 9.7 0.0 0.00 0.00 0.00 100 1011.0
20260507050005 13 350 9.7 0.0 0.00 0.00 0.00 100 1011.0
20260507044504 13 10 11.3 0.0 0.00 0.00 0.00 100 1011.0
20260507034504 13 350 9.7 0.0 0.00 0.00 0.00 100 1011.0
20260507030004 13 360 4.8 0.0 0.00 0.00 0.00 100 1011.0
20260507023005 12 0 3.2 0.0 0.00 0.00 0.00 100 1011.0
20260507021504 12 320 8.0 0.0 0.00 0.00 0.00 100 1011.0
20260507020004 12 320 8.0 0.0 0.00 0.00 0.00 100 1011.0
20260507014504 13 340 4.8 0.0 0.00 0.00 0.00 93 1011.0
20260507013005 13 340 4.8 0.0 0.00 0.00 0.00 93 1011.0
20260507010004 13 360 3.2 0.0 0.00 0.00 0.00 93 1011.0
20260507004504 13 320 4.8 0.0 0.00 0.00 0.00 100 1011.0
20260507003005 13 320 4.8 0.0 0.00 0.00 0.00 100 1011.0
20260507001503 13 60 3.2 0.0 0.00 0.00 0.00 100 1011.0
20260507000004 13 60 3.2 0.0 0.00 0.00 0.00 100 1011.0
20260506230004 13 0 3.2 0.0 0.00 0.00 0.00 100 1011.0
20260506224503 15 20 8.0 0.0 0.00 0.00 0.00 93 1010.0
20260506214504 16 0 3.2 0.0 0.00 0.00 0.00 93 1010.0
20260506211504 16 0 3.2 0.0 0.00 0.00 0.00 87 1010.0
20260506210005 16 0 3.2 0.0 0.00 0.00 0.00 87 1010.0